Location: Albany
(35.0170°S, 117.8920°E)
Time: 17:33:08
(UTC+08:00)

Transit 2A - Pass Details

Date: 25 January 2021
Orbit: 601 x 958 km, 66.7° (Epoch: 02 March)

Event Time Altitude Azimuth Distance (km) Brightness Sun altitude
Rises 15:41:03 0° 322° (NW) 2,940 9.5 43.1°
Reaches altitude 10° 15:43:17 10° 317° (NW) 2,077 9.0 42.6°
Maximum altitude 15:47:53 53° 239° (WSW) 875 7.7 41.7°
Drops below altitude 10° 15:53:00 10° 162° (SSE) 2,313 8.4 40.6°
Sets 15:55:37 0° 157° (SSE) 3,309 9.1 40.1°
